Home   Weather   Gorzów Wielkopolski   Past weeks

Flag for Poland Past Weather in Gorzów Wielkopolski, Poland — Yesterday and Last 2 Weeks

Now
65 °F

Low clouds.


Feels Like: 65 °F
Forecast: 65 / 76 °F
Wind: 2 mph from Southeast

Location: Gorzow Wlkp

Current Time: Jul 23, 2017 at 1:14:46 am

Latest Report: Jul 23, 2017 at 12:00 am


Visibility: 9 mi

Pressure: 29.95 "Hg

Humidity: 95%

Dew Point: 64 °F

Location of Gorzów WielkopolskiLocation

Past Weather in Gorzów Wielkopolski — Graph

°F

Gorzów Wielkopolski Temperature Yesterday

Maximum temperature yesterday: 79 °F (at 4:00 pm)
Minimum temperature yesterday: 59 °F (at 5:00 am)
Average temperature yesterday: 67 °F

High & Low Weather Summary for the Past Weeks

 TemperatureHumidityPressure
High82 °F (Jul 20, 5:00 pm)99% (Jul 8, 9:00 am)30.21 "Hg (Jul 8, 9:00 am)
Low51 °F (Jul 16, 6:00 am)31% (Jul 15, 2:00 pm)29.67 "Hg (Jul 12, 10:00 pm)
Average65 °F75%29.95 "Hg
* Reported Jul 7 11:00 pm — Jul 22 11:00 pm, Gorzów Wielkopolski. Weather by CustomWeather, © 2017

Note: Actual official high and low records may vary slightly from our data, if they occured in-between our weather recording intervals... More about our weather records

Advertising

Gorzów Wielkopolski Weather History for the Previous 24 Hours

Scroll right to see more
 ConditionsComfort  
Time TempWeatherWind HumidityBarometerVisibility
11:00 pm
Sat, Jul 22
65 °FLight rain. Low clouds.3 mph95%29.94 "Hg6 mi
10:00 pm65 °FThundershowers. Overcast.1 mph94%29.97 "Hg4 mi
9:00 pm66 °FThundershowers. Overcast.1 mph89%29.97 "Hg5 mi
8:00 pm68 °FThundershowers. Overcast.5 mph76%29.97 "Hg6 mi
7:00 pm75 °FOvercast.3 mph63%29.93 "Hg22 mi
6:00 pm77 °FOvercast.3 mph60%29.92 "Hg25 mi
5:00 pm78 °FOvercast.3 mph52%29.93 "Hg25 mi
4:00 pm79 °FOvercast.5 mph54%29.93 "Hg19 mi
2:00 pm77 °FPartly sunny.3 mph57%29.97 "Hg16 mi
1:00 pm76 °FPartly sunny.3 mph63%29.98 "Hg16 mi
12:00 pm72 °FPartly sunny.3 mph74%29.99 "Hg12 mi
11:00 am69 °FLow clouds.3 mph81%30.00 "Hg9 mi
10:00 am66 °FFog.3 mph89%30.01 "Hg5 mi
9:00 am64 °FFog.3 mph92%30.01 "Hg5 mi
8:00 am64 °FFog.3 mph91%29.99 "Hg5 mi
7:00 am63 °FFog.3 mph93%29.98 "Hg5 mi
6:00 am59 °FFog.2 mph96%29.98 "Hg5 mi
5:00 am59 °FFog.3 mph96%29.97 "Hg5 mi
4:00 am60 °FPassing clouds.2 mph95%29.98 "Hg6 mi
3:00 am61 °FPassing clouds.1 mph94%29.99 "Hg7 mi
2:00 am61 °FPassing clouds.1 mph94%29.99 "Hg9 mi
1:00 am62 °FPassing clouds.2 mph94%29.99 "Hg9 mi
Weather by CustomWeather, © 2017

See weather overviewHow to use our weather pages